Погода в Никеле

Хотите узнать прогноз погоды в Никеле? Тогда Вам сюда: Погода в Никеле

Поиск расширенной информации на нашем сайте:

Полезная информация:

Новости сайта



02.01.2020
Опубликован Долгосрочный прогноз погоды по городам России и ближнего зарубежья на январь 2020 года.
Карты: Прогноз на январь и февраль 2020 года, Сравнение прогнозируемой аномалии приземной температуры воздуха на январь 2020 года по разным моделям.




Погода в Никеле - сегодня

Время (UTC), дата Ветер
(°,м/с) 
Видим.   Явления Облачность Т
(°С)
Тd
(°С)
f(%) Тe
(°С)
Pmin
(гПа)
dP
(гПа)
Po
(мм)
O2
(г/м3)
Тmin Tmax R s Состояние
почвы
00 29.11.20 190 (Ю) 9-14{15}  50000 м  позёмок  10/10 600 м 
[Sc]
-2.3 -4.9 82 -7  1021.7  -1.6  756  308           
03 29.11.20 190 (Ю) 8-13{16}  20000 м  позёмок  10/10 600 м 
[Sc]
-2.2 -4.8 82 -7  1020.9  -0.7  756  307  -4.3         
06 29.11.20 200 (Ю) 6-11{16}  50000 м  {ливн. осадки}  10/10 600 м кучево-дожд. 
[Cb cap]
-1.4 -4.5 79 -5  1021.3  0.5  756  307  -3.4    0.0  неравномерный
сухой снег
100% 
09 29.11.20 190 (Ю) 6-9{13}  50000 м    9/9 600 м 
[Sc]
-1.3 -4.2 81 -5  1021.4  756  307           
12 29.11.20 190 (Ю) 8-11{11}  50000 м    9/9 600 м 
[Sc]
-1.7 -4.4 82 -6  1020.7  -0.7  755  307           
15 29.11.20 190 (Ю) 8-11{13}  50000 м    9/4 1000 м средняя 
[Sc|Ac trans]
-2.4 -5.1 82 -7  1019.9  -0.8  755  307      0.0     
18 29.11.20 200 (Ю) 7-11{14}  50000 м    9/6 600 м средняя 
[Sc|Ac trans]
-2.5 -5.2 82 -7  1018.8  -1.1  754  307    -1.1       
21 29.11.20 180 (Ю) 7-10{15}  50000 м    10/10 600 м 
[Sc]
-1.6 -4.6 80 -6  1017.9  -0.8  753  306           
00 30.11.20 190 (Ю) 8-13{14}  50000 м    10/10 600 м 
[Sc]
-1.1 -4.1 80 -6  1016.6  -1.3  752  305           
03 30.11.20 210 (ЮЗ) 6-11{15}  50000 м    10/10 600 м 
[Sc]
-0.5 -3.6 80 -4  1015.2  -1.4  751  304  -2.7         
06 30.11.20 190 (Ю) 6-10{14}  50000 м  в посл. час ливневой снег  10/10 600 м кучево-дожд. 
[Cb cap]
-0.2 -3.3 80 -4  1013.6  -1.5  750  303  -2.4    0.0  неравномерный
мокрый или
старый снег
100% 
09 30.11.20 200 (Ю) 6-13{15}  50000 м    10/10 600 м кучево-дожд. 
[Cb cap]
+0 -3.5 77 -3  1012.5  -1  749  302           
12 30.11.20 190 (Ю) 9-14{15}  50000 м    9/9 600 м кучево-дожд. 
[Cb cap]
-0.5 -4.2 76 -5  1010.7  -1.9  748  302           
15 30.11.20 200 (Ю) 8-14{16}  50000 м    10/10 600 м кучево-дожд. 
[Cb cap]
-0.9 -4.7 75 -5  1008.8  -1.9  747  302           
18 30.11.20 180 (Ю) 10-17{17}  20000 м  слаб. ливневой снег  10/10 600 м кучево-дожд. 
[Cb cap]
-1.2 -4.8 76 -6  1007.2  -1.6  745  302    +0  0.0     
21 30.11.20 190 (Ю) 9-14{17}  50000 м  позёмок{ливн. осадки}  9/9 600 м 
[Sc]
-1.4 -5.3 75 -6  1006.4  -0.8  745  302           
00 01.12.20 180 (Ю) 10-17{17}  10 км  слаб. ливневой снег  9/8 600 м кучево-дожд., средняя 
[Cb cap|Ac trans]
-1.7 -5.3 76 -7  1004.9  -1.5  744  302           
03 01.12.20 190 (Ю) 9-14{17}  4000 м  слаб. ливневой снег  10/10 600 м кучево-дожд. 
[Cb cap]
-1.5 -4.6 79 -6  1004.1  -0.7  743  302  -1.8    0.2     
06 01.12.20 200 (Ю) 7-12{15}  4000 м  слаб. ливневой снег  10/10 600 м кучево-дожд. 
[Cb cap]
-1.1 -3.9 81 -5  1004  -0.1  743  301  -1.8    0.6  неравномерный
сухой снег
100% 
09 01.12.20 200 (Ю) 5-9{12}  4000 м  слаб. ливневой снег  10/10 600 м кучево-дожд. 
[Cb cap]
-1.1 -3.7 82 -4  1004.4  0.4  743  301           
12 01.12.20 210 (ЮЗ) 2-3  2000 м  слаб. ливневой снег  10/10 200 м кучево-дожд. 
[Cb cap]
-1.5 -2.9 90 -2  1005.7  1.3  744  302           
15 01.12.20 190 (Ю) 1-1  50000 м  в посл. час ливневой снег  10/10 600 м кучево-дожд. 
[Cb cap]
-1.8 -3.1 91 -1  1009  3.1  747  303         
21 01.12.20 210 (ЮЗ) 2-3  20000 м    ясно 
-4 -7.2 78 -5  1015.3  2.9  751  308           
00 02.12.20 190 (Ю) 1-2  20000 м    ясно 
-5.4 -9 76 -5  1017.2  1.8  753  310           
03 02.12.20 180 (Ю) 2-4  50000 м    ясно 
-5.2 -9.1 74 -7  1016.9  -0.3  752  310  -8.3         
Время (UTC), дата Ветер
(°,м/с) 
Видим.   Явления Облачность Т
(°С)
Тd
(°С)
f(%) Тe
(°С)
Pmin
(гПа)
dP
(гПа)
Po
(мм)
O2
(г/м3)
Тmin Tmax R s Состояние
почвы

Для получения пояснительной информации подведите курсор к названию столбца.

ПОГОДА в Никеле - архив

Всё, что Вы хотите узнать о погоде в Никеле - удобно и подробно!

Выберите нужную дату (начиная с 1 января 2019* года) и нажмите кнопку "Найти".
Будут отображены архивные сводки погоды по пункту Никель, начиная с указанной даты.


Отображать данные в формате CSV (для использования в таблицах Excel)


Внимание! Наш архив погоды предназначен исключительно для личного некоммерческого использования в познавательных целях. Если Вам необходимы официальные справки о состоянии погоды (для производственных, юридических, коммерческих и т.п. целей), обращайтесь в органы Росгидромета.

*Примечание: данная дата относится к архиву по метеостанциям СССР (Россия, СНГ, Балтия).
Архив по метеостанциям Зарубежной Европы и Азии (кроме Китая) хранится 10 дней, по другим регионам земного шара (Китай, Африка, Америка, Австралия, Океания) - 1 день.

Никель - район местоположения метеостанции


Название, широта, долгота, высота метеостанции:
Никель 69.4°ш. 30.2°д. 126 м над ур. моря [Российская Федерация]

Дополнительная информация

В oтличие oт бoльшинства пoгoдных сайтoв мы публикуем пoдрoбную метеoинфoрмацию в детальнoм прoфессиoнальнoм фoрмате.

Характеристики температуры и влажнoсти вoздуха измеряются на высoте 2 м в тени вдали oт зданий и деревьев.
Скoрoсть ветра измеряется на высoте 10 м (на урoвне рoста челoвека скoрoсть ветра ниже в 1.5-2 раза). Если метеoстанция нахoдится в гoрoде или в лесу, тo скoрoсть ветра занижена на 2-4 м/с пo сравнению с oткрытым местoм. Скoрoсть ветра над акватoриями крупных рек и oзёр, а также на вершинах хoлмoв на 2-5 м/с выше, чем в oбычных услoвиях.
Атмoсфернoе давление в разных тoчках местнoсти мoжет значительнo oтличаться oт давления на метеoстанции, в зависимoсти oт услoвий рельефа (при пoдъёме на 10 м давление пoнижается примернo на 1 мм рт.ст.).